When you browse on this site, cookies collect data to enhance your experience and personalize the content and advertising you see.
Visit our Privacy Policy to learn more. By continuing to use the site, you agree to this use of cookies and data.
  • In United Kingdom
  • List of Countries
  • For 7 days
  • Water Temperature
  • Weather Map
  • Weather Widgets
  • user-avatar
    Login

    Hourly Weather Deva

    Today, 22 September, Sunday

    Time Temperature Precipitation Wind Pressure Humidity
    00:00 +9°C° 0 mm 1 mps 736 mmHg 58%
    01:00 +9°C° 0 mm 1 mps 736 mmHg 58%
    02:00 +8°C° 0 mm 1 mps 735 mmHg 60%
    03:00 +8°C° 0 mm 1 mps 735 mmHg 61%
    04:00 +8°C° 0 mm 1 mps 735 mmHg 61%
    05:00 +8°C° 0 mm 1 mps 735 mmHg 62%
    06:00 +9°C° 0 mm 1 mps 735 mmHg 57%
    07:00 +11°C° 0 mm 1 mps 735 mmHg 53%
    08:00 +12°C° 0 mm 1 mps 735 mmHg 49%
    09:00 +15°C° 0 mm 1 mps 735 mmHg 42%
    10:00 +19°C° 0 mm 1 mps 735 mmHg 36%
    11:00 +22°C° 0 mm 1 mps 735 mmHg 29%
    12:00 +23°C° 0 mm 1 mps 734 mmHg 27%
    13:00 +24°C° 0 mm 1 mps 734 mmHg 25%
    14:00 +26°C° 0 mm 1 mps 733 mmHg 23%
    15:00 +25°C° 0 mm 1 mps 732 mmHg 25%
    16:00 +24°C° 0 mm 1 mps 732 mmHg 27%
    17:00 +24°C° 0 mm 1 mps 731 mmHg 29%
    18:00 +21°C° 0 mm 1 mps 731 mmHg 35%
    19:00 +18°C° 0 mm 1 mps 731 mmHg 40%
    20:00 +15°C° 0 mm 1 mps 731 mmHg 45%
    21:00 +14°C° 0 mm 1 mps 731 mmHg 46%
    22:00 +14°C° 0 mm 1 mps 730 mmHg 47%
    23:00 +13°C° 0 mm 1 mps 730 mmHg 48%

    Tomorrow, 23 September, Monday

    Time Temperature Precipitation Wind Pressure Humidity
    00:00 +13°C° 0 mm 1 mps 730 mmHg 48%
    01:00 +13°C° 0 mm 1 mps 730 mmHg 48%
    02:00 +13°C° 0 mm 1 mps 730 mmHg 48%
    03:00 +14°C° 0 mm 1 mps 730 mmHg 47%
    04:00 +14°C° 0 mm 1 mps 730 mmHg 47%
    05:00 +14°C° 0 mm 1 mps 729 mmHg 46%
    06:00 +15°C° 0 mm 1 mps 729 mmHg 48%
    07:00 +15°C° 0 mm 1 mps 729 mmHg 49%
    08:00 +14°C° 0 mm 0 mps 729 mmHg 51%
    09:00 +14°C° 0.1 mm 0 mps 729 mmHg 54%
    10:00 +15°C° 0.1 mm 0 mps 730 mmHg 58%
    11:00 +15°C° 0.1 mm 0 mps 730 mmHg 62%
    12:00 +14°C° 0.3 mm 0 mps 730 mmHg 67%
    13:00 +14°C° 0.3 mm 0 mps 729 mmHg 73%
    14:00 +14°C° 0.3 mm 0 mps 729 mmHg 78%
    15:00 +14°C° 0.1 mm 0 mps 729 mmHg 80%
    16:00 +13°C° 0.1 mm 0 mps 729 mmHg 82%
    17:00 +13°C° 0.1 mm 0 mps 729 mmHg 84%
    18:00 +13°C° 0 mm 0 mps 729 mmHg 85%
    19:00 +13°C° 0 mm 0 mps 729 mmHg 86%
    20:00 +13°C° 0 mm 0 mps 729 mmHg 87%
    21:00 +13°C° 0 mm 0 mps 729 mmHg 87%
    22:00 +13°C° 0 mm 0 mps 729 mmHg 88%
    23:00 +13°C° 0 mm 0 mps 728 mmHg 88%

    Day after tomorrow, 24 September, Tuesday

    Time Temperature Precipitation Wind Pressure Humidity
    00:00 +12°C° 0 mm 0 mps 728 mmHg 89%
    01:00 +13°C° 0 mm 1 mps 728 mmHg 89%
    02:00 +13°C° 0 mm 1 mps 728 mmHg 90%
    03:00 +13°C° 0 mm 1 mps 728 mmHg 91%
    04:00 +13°C° 0 mm 1 mps 727 mmHg 91%
    05:00 +13°C° 0 mm 1 mps 727 mmHg 92%
    06:00 +13°C° 0 mm 1 mps 727 mmHg 90%
    07:00 +14°C° 0 mm 1 mps 727 mmHg 87%
    08:00 +15°C° 0 mm 1 mps 727 mmHg 84%
    09:00 +16°C° 0 mm 1 mps 727 mmHg 78%
    10:00 +19°C° 0 mm 1 mps 728 mmHg 71%
    11:00 +20°C° 0 mm 1 mps 728 mmHg 64%
    12:00 +20°C° 0 mm 1 mps 728 mmHg 65%
    13:00 +20°C° 0 mm 1 mps 728 mmHg 66%
    14:00 +20°C° 0 mm 1 mps 727 mmHg 67%
    15:00 +19°C° 0 mm 1 mps 727 mmHg 71%
    16:00 +18°C° 0 mm 1 mps 727 mmHg 75%
    17:00 +16°C° 0 mm 1 mps 727 mmHg 79%
    18:00 +15°C° 0 mm 0 mps 727 mmHg 82%
    19:00 +14°C° 0 mm 0 mps 727 mmHg 85%
    20:00 +13°C° 0 mm 0 mps 727 mmHg 88%
    21:00 +13°C° 0 mm 0 mps 727 mmHg 89%
    22:00 +13°C° 0 mm 0 mps 727 mmHg 89%
    23:00 +13°C° 0 mm 0 mps 728 mmHg 90%

    25 September, Wednesday

    Time Temperature Precipitation Wind Pressure Humidity
    00:00 +13°C° 0 mm 0 mps 727 mmHg 90%
    01:00 +13°C° 0 mm 0 mps 727 mmHg 90%
    02:00 +13°C° 0 mm 0 mps 727 mmHg 91%
    03:00 +13°C° 0.1 mm 0 mps 727 mmHg 91%
    04:00 +13°C° 0.1 mm 0 mps 727 mmHg 91%
    05:00 +13°C° 0.1 mm 0 mps 727 mmHg 92%
    06:00 +13°C° 0.1 mm 0 mps 727 mmHg 91%
    07:00 +13°C° 0.1 mm 0 mps 727 mmHg 90%
    08:00 +14°C° 0.1 mm 0 mps 727 mmHg 89%
    09:00 +14°C° 0.1 mm 0 mps 727 mmHg 89%
    10:00 +14°C° 0.1 mm 0 mps 727 mmHg 88%
    11:00 +15°C° 0.1 mm 0 mps 727 mmHg 87%
    12:00 +15°C° 0.1 mm 0 mps 727 mmHg 86%
    13:00 +15°C° 0.1 mm 0 mps 727 mmHg 86%
    14:00 +16°C° 0.1 mm 1 mps 727 mmHg 85%
    15:00 +18°C° 0.1 mm 1 mps 726 mmHg 84%
    16:00 +16°C° 0.1 mm 0 mps 726 mmHg 82%
    17:00 +16°C° 0.1 mm 0 mps 726 mmHg 81%
    18:00 +15°C° 0.2 mm 0 mps 726 mmHg 85%
    19:00 +15°C° 0.2 mm 0 mps 726 mmHg 88%
    20:00 +14°C° 0.2 mm 0 mps 726 mmHg 92%
    21:00 +14°C° 0.3 mm 0 mps 726 mmHg 92%
    22:00 +13°C° 0.3 mm 0 mps 726 mmHg 93%
    23:00 +13°C° 0.3 mm 0 mps 726 mmHg 94%

    26 September, Thursday

    Time Temperature Precipitation Wind Pressure Humidity
    00:00 +13°C° 0.5 mm 0 mps 726 mmHg 94%
    01:00 +13°C° 0.5 mm 0 mps 726 mmHg 94%
    02:00 +13°C° 0.5 mm 0 mps 726 mmHg 94%
    03:00 +13°C° 0.5 mm 0 mps 726 mmHg 94%
    04:00 +13°C° 0.5 mm 0 mps 726 mmHg 94%
    05:00 +13°C° 0.5 mm 0 mps 726 mmHg 95%
    06:00 +13°C° 0.7 mm 0 mps 726 mmHg 95%
    07:00 +13°C° 0.7 mm 0 mps 726 mmHg 95%
    08:00 +13°C° 0.7 mm 0 mps 726 mmHg 95%
    09:00 +13°C° 2 mm 0 mps 727 mmHg 95%
    10:00 +13°C° 2 mm 0 mps 727 mmHg 96%
    11:00 +15°C° 2 mm 1 mps 727 mmHg 97%
    12:00 +15°C° 0.6 mm 1 mps 727 mmHg 96%
    13:00 +15°C° 0.6 mm 1 mps 727 mmHg 95%
    14:00 +15°C° 0.6 mm 2 mps 727 mmHg 95%
    15:00 +15°C° 0.3 mm 2 mps 727 mmHg 93%
    16:00 +15°C° 0.3 mm 2 mps 727 mmHg 90%
    17:00 +16°C° 0.3 mm 2 mps 727 mmHg 88%
    18:00 +15°C° 0.1 mm 2 mps 728 mmHg 90%
    19:00 +14°C° 0.1 mm 2 mps 728 mmHg 92%
    20:00 +13°C° 0.1 mm 1 mps 728 mmHg 94%
    21:00 +13°C° 0 mm 1 mps 728 mmHg 93%
    22:00 +12°C° 0 mm 1 mps 729 mmHg 93%
    23:00 +12°C° 0 mm 1 mps 729 mmHg 92%

    27 September, Friday

    Time Temperature Precipitation Wind Pressure Humidity
    00:00 +12°C° 0 mm 1 mps 729 mmHg 92%
    01:00 +12°C° 0 mm 1 mps 729 mmHg 92%
    02:00 +12°C° 0 mm 1 mps 729 mmHg 92%
    03:00 +11°C° 0 mm 1 mps 729 mmHg 92%
    04:00 +11°C° 0 mm 1 mps 730 mmHg 92%
    05:00 +11°C° 0 mm 1 mps 730 mmHg 93%
    06:00 +12°C° 0 mm 1 mps 730 mmHg 91%
    07:00 +11°C° 0 mm 0 mps 730 mmHg 89%
    08:00 +12°C° 0 mm 0 mps 730 mmHg 87%
    09:00 +15°C° 0 mm 1 mps 731 mmHg 79%
    10:00 +18°C° 0 mm 1 mps 731 mmHg 70%
    11:00 +20°C° 0 mm 1 mps 732 mmHg 62%
    12:00 +20°C° 0 mm 2 mps 731 mmHg 57%
    13:00 +21°C° 0 mm 2 mps 731 mmHg 53%
    14:00 +23°C° 0 mm 2 mps 731 mmHg 48%
    15:00 +21°C° 0 mm 2 mps 731 mmHg 51%
    16:00 +21°C° 0 mm 2 mps 731 mmHg 53%
    17:00 +21°C° 0 mm 1 mps 731 mmHg 55%
    18:00 +19°C° 0 mm 1 mps 731 mmHg 62%
    19:00 +16°C° 0 mm 1 mps 731 mmHg 69%
    20:00 +15°C° 0 mm 1 mps 731 mmHg 76%
    21:00 +14°C° 0 mm 1 mps 731 mmHg 77%
    22:00 +14°C° 0 mm 1 mps 731 mmHg 77%
    23:00 +13°C° 0 mm 1 mps 731 mmHg 78%
    Show more